Tracking 29892 objects as of 21-Nov-2024
HD Live streaming from Space Station
objects crossing your sky now

COSMOS 2550

Track COSMOS 2550 now!
10-day predictions


NORAD ID: 48865
Int'l Code: 2021-056A
Perigee: 465.8 km
Apogee: 477.3 km
Inclination: 67.1 °
Period: 93.9 minutes
Semi major axis: 6842 km
RCS: Unknown
Launch date: June 25, 2021
Source: Commonwealth of Independent States (former USSR) (CIS)
Launch site: PLESETSK MISSILE AND SPACE COMPLEX (PKMTR)
Your satellite tracking list
Your tracking list is empty




NASA's NSSDC Master Catalog

Two Line Element Set (TLE):
1 48865U 21056A   24326.11036805  .00000399  00000-0  17950-4 0  9993
2 48865  67.1415  33.6054 0008436 271.1371  88.8816 15.33828767190842
Source of the keplerian elements: AFSPC